Regional Weather Roundup
Issued by NWS

Home | Current Version | Previous Version | Graphics & Text | Print | Product List | Glossary On
Versions: 1 2 3 4 5 6 7 8 9 10 11 12 13 14 15 16 17 18 19 20 21 22 23 24 25 26 27 28
000
ASUS45 KCYS 270410
RWRWY

WYOMING REGIONAL WEATHER ROUNDUP
NATIONAL WEATHER SERVICE CHEYENNE WY
1000 PM MDT FRI AUG 26 2016

NOTE:  "FAIR" INDICATES FEW OR NO CLOUDS BELOW 12,000 FEET
WITH NO SIGNIFICANT WEATHER AND/OR OBSTRUCTIONS TO VISIBILITY.

WYZ001-270500-
YELLOWSTONE NATIONAL PARK

CITY           SKY/WX    TMP DP  RH WIND       PRES   REMARKS
LK YELLOWSTONE   N/A     43  32  65 CALM      30.20R
W YELLOWSTONE  NOT AVBL

$$
WYZ002>013-054>058-071-098>099-270500-
NORTHERN WYOMING

CITY           SKY/WX    TMP DP  RH WIND       PRES   REMARKS
JACKSON        FAIR      52  27  37 W5        30.12R
CODY           FAIR      52  43  71 S6        30.05S
GREYBULL       FAIR      58  38  47 CALM      29.99R
WORLAND        FAIR      56  43  61 S8        30.01R
SHERIDAN       MOCLDY    53  44  71 SW6       30.03S
BUFFALO        FAIR      55  39  54 SW8       30.09S
GILLETTE       FAIR      54  48  80 NE7       30.07R
HULETT         TSTM      54  50  87 CALM      30.10R
NEWCASTLE      FAIR      55  46  71 E3        30.06R

$$
WYZ014>020-022>026-101>103-270500-
CENTRAL WYOMING

CITY           SKY/WX    TMP DP  RH WIND       PRES   REMARKS
BIG PINEY      FAIR      48  36  63 N8        30.18R
PINEDALE       FAIR      48  34  57 CALM      30.18S
DUBOIS         FAIR      45  30  57 CALM      30.15R
LANDER         FAIR      57  43  59 W9        30.05R
RIVERTON       FAIR      57  41  55 NE7       30.07R
CASPER         FAIR      51  48  89 N8        30.08R
DOUGLAS        MOCLDY    56  48  74 SW7       30.08F

$$
WYZ021-027>030-104>119-270500-
SOUTHERN WYOMING

CITY           SKY/WX    TMP DP  RH WIND       PRES   REMARKS
EVANSTON       FAIR      56  19  23 W14       30.17R
FORT BRIDGER   FAIR      58  17  20 W13       30.19R
ROCK SPRINGS   FAIR      57  34  41 S6        30.15R
DIXON          FAIR      55  38  53 CALM      30.23S
RAWLINS        FAIR      52  34  50 W3        30.19R
SARATOGA       FAIR      52  34  50 S12       30.22R
LARAMIE        FAIR      55  34  45 SW14      30.20R
CHEYENNE       FAIR      54  50  86 S8        30.17R
TORRINGTON     FAIR      58  55  90 S7        30.06R
PINE BLUFFS    MOCLDY    54  54 100 N8        30.16R

$$




USA.gov is the U.S. government's official web portal to all federal, state and local government web resources and services.